TimeCDT,TemperatureF,Dew PointF,Humidity,Sea Level PressureIn,VisibilityMPH,Wind Direction,Wind SpeedMPH,Gust SpeedMPH,PrecipitationIn,Events,Conditions,WindDirDegrees,DateUTC
12:15 AM,62.6,55.8,78,30.14,10.0,Calm,Calm,-,N/A,,Scattered Clouds,0,2013-08-05 05:15:00
12:35 AM,61.9,55.9,81,30.14,10.0,Calm,Calm,-,N/A,,Scattered Clouds,0,2013-08-05 05:35:00
12:55 AM,60.1,55.4,85,30.14,10.0,Calm,Calm,-,N/A,,Clear,0,2013-08-05 05:55:00
1:15 AM,59.7,55.8,87,30.13,10.0,Calm,Calm,-,N/A,,Scattered Clouds,0,2013-08-05 06:15:00
1:35 AM,61.7,55.4,80,30.13,10.0,Calm,Calm,-,N/A,,Mostly Cloudy,0,2013-08-05 06:35:00
1:55 AM,60.8,55.0,81,30.11,10.0,ESE,3.5,-,N/A,,Scattered Clouds,110,2013-08-05 06:55:00
2:15 AM,59.9,54.5,82,30.11,10.0,Calm,Calm,-,N/A,,Clear,0,2013-08-05 07:15:00
2:35 AM,60.1,54.5,82,30.11,10.0,Calm,Calm,-,N/A,,Scattered Clouds,0,2013-08-05 07:35:00
2:55 AM,60.1,54.1,81,30.11,10.0,Calm,Calm,-,N/A,,Mostly Cloudy,0,2013-08-05 07:55:00
3:15 AM,60.4,54.0,79,30.10,10.0,ESE,4.6,-,N/A,,Mostly Cloudy,120,2013-08-05 08:15:00
3:35 AM,60.3,52.9,77,30.10,10.0,Calm,Calm,-,N/A,,Scattered Clouds,0,2013-08-05 08:35:00
3:55 AM,60.4,52.0,74,30.10,10.0,SE,4.6,-,N/A,,Scattered Clouds,140,2013-08-05 08:55:00
4:15 AM,59.9,51.8,75,30.09,10.0,SSE,4.6,-,N/A,,Clear,150,2013-08-05 09:15:00
4:35 AM,60.1,52.2,75,30.09,10.0,Calm,Calm,-,N/A,,Clear,0,2013-08-05 09:35:00
4:55 AM,59.9,52.0,75,30.09,10.0,Calm,Calm,-,N/A,,Clear,0,2013-08-05 09:55:00
5:15 AM,59.0,52.3,79,30.10,10.0,SSE,3.5,-,N/A,,Clear,150,2013-08-05 10:15:00
5:35 AM,58.6,52.7,81,30.09,10.0,Calm,Calm,-,N/A,,Clear,0,2013-08-05 10:35:00
5:55 AM,58.1,52.7,82,30.09,10.0,SE,3.5,-,N/A,,Clear,140,2013-08-05 10:55:00
6:15 AM,58.8,53.1,81,30.09,10.0,Calm,Calm,-,N/A,,Clear,0,2013-08-05 11:15:00
6:35 AM,59.5,53.8,81,30.08,10.0,SE,3.5,-,N/A,,Clear,140,2013-08-05 11:35:00
6:55 AM,60.3,54.0,80,30.08,10.0,SE,5.8,-,N/A,,Clear,130,2013-08-05 11:55:00
7:15 AM,60.8,54.3,79,30.09,10.0,SSE,3.5,-,N/A,,Clear,150,2013-08-05 12:15:00
7:55 AM,64.4,55.4,73,30.10,10.0,SSE,3.5,-,N/A,,Clear,150,2013-08-05 12:55:00
8:15 AM,64.8,55.9,73,30.09,10.0,SSE,3.5,-,N/A,,Scattered Clouds,160,2013-08-05 13:15:00
8:35 AM,65.5,56.3,72,30.09,10.0,South,3.5,-,N/A,,Mostly Cloudy,170,2013-08-05 13:35:00
8:55 AM,66.9,57.2,71,30.09,10.0,SE,4.6,-,N/A,,Scattered Clouds,140,2013-08-05 13:55:00
9:15 AM,68.0,58.1,71,30.08,10.0,South,3.5,-,N/A,,Scattered Clouds,170,2013-08-05 14:15:00
9:35 AM,68.5,58.3,70,30.08,10.0,SSW,5.8,-,N/A,,Clear,200,2013-08-05 14:35:00
9:55 AM,69.1,58.8,70,30.07,10.0,South,3.5,-,N/A,,Clear,170,2013-08-05 14:55:00
10:35 AM,68.9,59.2,71,30.07,10.0,SW,3.5,-,N/A,,Scattered Clouds,220,2013-08-05 15:35:00
10:55 AM,69.1,59.4,71,30.05,10.0,Calm,Calm,-,N/A,,Scattered Clouds,0,2013-08-05 15:55:00
11:15 AM,70.7,59.9,69,30.05,10.0,South,3.5,-,N/A,,Clear,180,2013-08-05 16:15:00
11:35 AM,70.3,59.9,69,30.06,10.0,SW,3.5,-,N/A,,Light Drizzle,230,2013-08-05 16:35:00
11:55 AM,68.9,61.0,76,30.06,10.0,SW,5.8,-,N/A,,Drizzle,220,2013-08-05 16:55:00
12:15 PM,66.7,62.2,85,30.04,7.0,SSW,6.9,-,N/A,Rain,Rain,200,2013-08-05 17:15:00
12:35 PM,66.2,62.8,89,29.97,10.0,South,13.8,19.6,0.02,Rain,Light Rain,180,2013-08-05 17:35:00
1:15 PM,69.3,64.8,86,29.97,10.0,SSW,10.4,16.1,N/A,,Clear,210,2013-08-05 18:15:00
1:35 PM,70.9,64.6,80,29.99,10.0,SSW,9.2,-,N/A,,Clear,210,2013-08-05 18:35:00
1:55 PM,72.5,63.1,72,29.99,10.0,SW,8.1,18.4,N/A,,Clear,220,2013-08-05 18:55:00
2:15 PM,71.8,61.7,70,30.00,10.0,SW,10.4,20.7,N/A,,Clear,230,2013-08-05 19:15:00
2:35 PM,68.9,60.1,73,30.00,10.0,SW,6.9,19.6,N/A,,Mostly Cloudy,220,2013-08-05 19:35:00
2:55 PM,68.4,58.5,71,29.98,10.0,South,8.1,17.3,N/A,,Overcast,180,2013-08-05 19:55:00
3:15 PM,69.3,60.1,72,29.98,10.0,South,6.9,-,N/A,,Mostly Cloudy,190,2013-08-05 20:15:00
3:55 PM,70.0,59.9,70,29.97,10.0,SSW,9.2,-,N/A,,Overcast,200,2013-08-05 20:55:00
4:15 PM,69.4,59.7,71,29.98,10.0,SSW,6.9,-,N/A,,Overcast,210,2013-08-05 21:15:00
4:35 PM,67.3,61.3,81,29.97,10.0,South,3.5,-,0.01,,Overcast,170,2013-08-05 21:35:00
4:55 PM,68.9,61.3,77,29.96,10.0,SSE,5.8,-,0.01,,Mostly Cloudy,150,2013-08-05 21:55:00
5:15 PM,68.9,60.4,74,29.96,10.0,SSE,5.8,-,N/A,,Overcast,150,2013-08-05 22:15:00
5:35 PM,68.5,60.4,75,29.95,10.0,SE,4.6,-,N/A,,Overcast,140,2013-08-05 22:35:00
5:55 PM,68.5,59.7,73,29.94,10.0,SSE,6.9,-,N/A,,Overcast,150,2013-08-05 22:55:00
6:15 PM,69.6,61.0,74,29.92,10.0,SSE,6.9,-,N/A,,Mostly Cloudy,160,2013-08-05 23:15:00
6:35 PM,69.8,60.3,72,29.91,10.0,South,8.1,-,N/A,,Scattered Clouds,170,2013-08-05 23:35:00
6:55 PM,69.1,59.9,72,29.90,10.0,South,6.9,-,N/A,,Clear,170,2013-08-05 23:55:00
7:15 PM,68.4,59.9,74,29.89,10.0,SSE,6.9,-,N/A,,Clear,150,2013-08-06 00:15:00
7:35 PM,67.8,60.6,78,29.90,10.0,SSE,4.6,-,N/A,,Clear,160,2013-08-06 00:35:00
7:55 PM,67.8,61.2,79,29.91,10.0,SSE,4.6,-,N/A,,Mostly Cloudy,160,2013-08-06 00:55:00
8:15 PM,68.0,61.5,80,29.91,10.0,Calm,Calm,-,N/A,,Overcast,0,2013-08-06 01:15:00
8:55 PM,68.0,61.9,81,29.92,10.0,ESE,4.6,-,N/A,,Overcast,120,2013-08-06 01:55:00
9:15 PM,67.5,61.9,82,29.92,10.0,SE,3.5,-,N/A,,Overcast,140,2013-08-06 02:15:00
9:35 PM,67.6,61.9,82,29.92,10.0,SSE,3.5,-,N/A,,Overcast,150,2013-08-06 02:35:00
9:55 PM,67.6,62.1,82,29.92,10.0,SE,4.6,-,N/A,,Overcast,140,2013-08-06 02:55:00
10:15 PM,67.6,62.2,83,29.92,10.0,SSE,3.5,-,N/A,,Overcast,150,2013-08-06 03:15:00
10:35 PM,68.0,62.6,83,29.92,10.0,SSE,3.5,-,N/A,,Overcast,160,2013-08-06 03:35:00
10:55 PM,67.8,62.6,83,29.92,10.0,SSE,3.5,-,N/A,,Overcast,150,2013-08-06 03:55:00
11:15 PM,68.0,62.6,83,29.92,10.0,SSE,4.6,-,N/A,,Overcast,150,2013-08-06 04:15:00
11:35 PM,68.0,62.8,83,29.91,10.0,SE,4.6,-,N/A,,Overcast,140,2013-08-06 04:35:00
11:55 PM,67.8,63.0,84,29.91,10.0,SSE,3.5,-,N/A,,Mostly Cloudy,150,2013-08-06 04:55:00